Skip Page Navigation
NASA JPL Caltech
NASA Logo - Jet Propulsion Laboratory + View the NASA Portal
+ Center for Near-Earth Object Studies
JPL Home Earth Solar System Stars & Galaxies Technology
JPL Solar System Dynamics
BODIES ORBITS EPHEMERIDES TOOLS PHYSICAL DATA DISCOVERY FAQ SITE MAP
JPL Small-Body Database Browser
Search: [ help ]  
70827 (1999 VN82)
Classification: Main-belt Asteroid          SPK-ID: 2070827
Ephemeris | Orbit Diagram | Orbital Elements | Mission Design | Physical Parameters | Discovery Circumstances ]

[ show orbit diagram ]
Orbital Elements at Epoch 2459000.5 (2020-May-31.0) TDB
Reference: JPL 19 (heliocentric ecliptic J2000)
 Element Value Uncertainty (1-sigma)   Units 
e .1205066426910922 4.6275e-08  
a 2.586063744419706 1.5692e-08 au
q 2.274425884794532 1.193e-07 au
i 12.66437750686427 4.8458e-06 deg
node 207.3050203068756 2.2304e-05 deg
peri 253.614367142854 2.9118e-05 deg
M 280.2172669906166 2.0945e-05 deg
tp 2459337.138415434351
(2021-May-02.63841543)
8.9279e-05 TDB
period 1518.998221609093
4.16
1.3826e-05
3.785e-08
d
yr
n .2369983024855998 2.1571e-09 deg/d
Q 2.897701604044879 1.7583e-08 au
  Orbit Determination Parameters
   # obs. used (total)      451  
   data-arc span      9629 days (26.36 yr)  
   first obs. used      1993-04-21  
   last obs. used      2019-09-01  
   planetary ephem.      DE431  
   SB-pert. ephem.      SB431-N16  
   condition code      0  
   norm. resid. RMS      .61323  
   source      ORB  
   producer      Otto Matic  
   solution date      2019-Sep-24 02:39:20  

Additional Information
 Earth MOID = 1.32788 au 
 Jupiter MOID = 2.36807 au 
 T_jup = 3.378 
[ show covariance matrix ]

Ephemeris | Orbit Diagram | Orbital Elements | Mission Design | Physical Parameters | Discovery Circumstances ]

Physical Parameter Table
Parameter Symbol Value Units Sigma Reference Notes
absolute magnitude H 15.6   n/a MPO439541  

70827 (1999 VN82)          Discovered 1999-Nov-05 by LINEAR at Socorro
Reference: 20031109/Numbers.arcLast Updated: 2004-04-19

Alternate Designations
 1999 VN82 = 2001 FP113 
Ephemeris | Orbit Diagram | Orbital Elements | Mission Design | Physical Parameters | Discovery Circumstances ]
ABOUT SSD CREDITS/AWARDS PRIVACY/COPYRIGHT GLOSSARY LINKS
FirstGov 2020-Sep-27 08:13 UT
(server date/time)  
NASA Home Page
Site Manager:   Ryan S. Park
Webmaster  Alan B. Chamberlin